Weather History for St. Joseph, MO

Change the Weather History Date:

Monday, October 17, 2011

  Actual Average Record
Temperature  
Mean Temperature 50 °F 54 °F  
Max Temperature 59 °F 67 °F 89 °F (1991)
Min Temperature 40 °F 42 °F 24 °F (1969)
Degree Days  
Heating Degree Days 15 11  
Month to date heating degree days 74 147  
Since 1 July heating degree days 127 227  
Cooling Degree Days 0 0  
Month to date cooling degree days 32 18  
Year to date cooling degree days 491 1217  
Moisture  
Dew Point 39 °F    
Average Humidity 70    
Maximum Humidity 96    
Minimum Humidity 43    
Precipitation  
Precipitation 0.02 in 0.09 in 1.67 in (1898)
Month to date precipitation 0.12 1.59  
Year to date precipitation 13.95 31.31  
Sea Level Pressure  
Sea Level Pressure 30.02 in    
Wind  
Wind Speed 5 mph (NE)    
Max Wind Speed 15 mph    
Max Gust Speed 20 mph    
Visibility 10 miles    
Events Rain    
T = Trace of Precipitation, MM = Missing Value Source: NWS Daily Summary

Daily Weather History Graph

Daily Weather History Graph

Search for Another Location

Airport:

Trip Planner

Search our weather history database for the weather conditions in past years. The results will help you decide how hot, cold, wet, or windy it might be!

Date:

Astronomy

Oct. 17, 2011 Rise Set
Actual Time 7:31 AM CDT 6:37 PM CDT
Civil Twilight 7:04 AM CDT 7:04 PM CDT
Nautical Twilight 6:33 AM CDT 7:36 PM CDT
Astronomical Twilight 6:01 AM CDT 8:07 PM CDT
Moon 10:19 PM CDT (10/17) 12:38 PM CDT (10/17)
Length of Visible Light 12h 00m
Length of Day
11h 05m
Waning Gibbous, 74% of the Moon is Illuminated
Oct 17
Waning Gibbous
Oct 19
Last Quarter
Oct 26
New
Nov 2
First Quarter
Nov 10
Full

Hourly Weather History & Observations

Time (CDT) Temp. Windchill Dew Point Humidity Pressure Visibility Wind Dir Wind Speed Gust Speed Precip Events Conditions
12:53 AM 42.1 °F - 37.9 °F 85% 30.04 in 10.0 mi Calm Calm - N/A   Clear
1:53 AM 44.1 °F - 39.9 °F 85% 30.03 in 10.0 mi Calm Calm - N/A   Clear
2:53 AM 43.0 °F - 39.0 °F 86% 30.03 in 10.0 mi Calm Calm - N/A   Clear
3:53 AM 42.1 °F - 39.0 °F 89% 30.03 in 10.0 mi Calm Calm - N/A   Clear
4:53 AM 44.6 °F - 42.8 °F 93% 30.03 in 10.0 mi Calm Calm - N/A   Clear
5:53 AM 39.9 °F - 37.9 °F 93% 30.03 in 10.0 mi Calm Calm - N/A   Clear
6:53 AM 42.1 °F 39.2 °F 39.9 °F 92% 30.01 in 10.0 mi NNE 4.6 mph - N/A   Clear
7:53 AM 43.0 °F 39.5 °F 41.0 °F 93% 30.01 in 10.0 mi North 5.8 mph - N/A   Clear
8:53 AM 46.9 °F - 42.1 °F 83% 30.02 in 10.0 mi North 4.6 mph - N/A   Clear
9:53 AM 50.0 °F - 41.0 °F 71% 30.04 in 10.0 mi North 5.8 mph - N/A   Clear
10:53 AM 55.0 °F - 33.1 °F 43% 30.04 in 10.0 mi ENE 8.1 mph - N/A   Clear
11:53 AM 55.9 °F - 33.1 °F 42% 30.00 in 10.0 mi East 15.0 mph 19.6 mph N/A   Clear
12:53 PM 52.0 °F - 37.9 °F 59% 29.99 in 9.0 mi NE 10.4 mph - 0.00 in Rain Light Rain
1:53 PM 52.0 °F - 37.0 °F 57% 29.97 in 10.0 mi East 9.2 mph - 0.00 in Rain Light Rain
2:53 PM 51.1 °F - 36.0 °F 56% 29.97 in 10.0 mi East 9.2 mph - 0.00 in   Overcast
3:53 PM 48.0 °F - 39.0 °F 71% 29.98 in 10.0 mi East 10.4 mph - 0.02 in   Overcast
4:53 PM 46.9 °F - 39.9 °F 77% 30.01 in 10.0 mi SE 3.5 mph - 0.00 in   Overcast
5:53 PM 46.9 °F - 39.9 °F 77% 30.02 in 10.0 mi Calm Calm - 0.00 in Rain Light Rain
6:53 PM 46.4 °F 45.2 °F 41.0 °F 81% 30.03 in 10.0 mi South 3.5 mph - N/A   Overcast
7:53 PM 46.0 °F - 42.1 °F 86% 30.05 in 10.0 mi Calm Calm - N/A   Overcast
8:53 PM 46.0 °F - 42.1 °F 86% 30.04 in 10.0 mi Calm Calm - N/A   Partly Cloudy
9:53 PM 46.9 °F - 39.9 °F 77% 30.01 in 10.0 mi Calm Calm - N/A   Clear
10:53 PM 46.9 °F - 41.0 °F 80% 30.03 in 10.0 mi North 4.6 mph - N/A   Mostly Cloudy
11:53 PM 48.9 °F - 42.1 °F 77% 30.02 in 10.0 mi NNW 6.9 mph - N/A   Overcast